Location: PSU-Greenbush Astrophysical Observatory
(37.5140°N, 94.9880°W)
Time: 14:59:31
(UTC-06:00)

Envisat - Visible Passes

Search period start: 06 December 2019 00:00
Search period end: 16 December 2019 00:00
Orbit: 764 x 766 km, 98.1° (Epoch: 06 December)

Date Brightness Start Highest point End Pass type
(mag) Time Alt. Az. Time Alt. Az. Time Alt. Az.
06 Dec 5.6 06:13:54 10° NE 06:17:58 24° E 06:22:01 10° SSE visible
06 Dec 3.9 17:26:38 10° ESE 17:30:47 26° ENE 17:34:58 10° NNE visible
06 Dec 4.7 19:05:07 10° SSW 19:09:39 33° W 19:14:13 10° NNW visible
07 Dec 3.1 18:27:43 10° S 18:32:47 77° WSW 18:37:52 10° NNW visible
08 Dec 4.4 06:38:46 10° NNE 06:43:37 43° E 06:48:24 10° S visible
08 Dec 3.2 17:51:17 10° SE 17:56:06 46° ENE 18:00:57 10° N visible
08 Dec 5.7 19:31:53 10° SW 19:35:20 18° W 19:38:47 10° NW visible
09 Dec 5.9 06:03:05 10° NE 06:06:37 19° E 06:10:07 10° SE visible
09 Dec 4.2 18:53:33 10° S 18:58:19 42° W 19:03:08 10° NNW visible
10 Dec 2.9 18:16:26 10° SSE 18:21:30 84° ENE 18:26:36 10° N visible
11 Dec 4.9 06:27:41 10° NNE 06:32:17 33° E 06:36:50 10° SSE visible
11 Dec 3.5 17:40:17 10° SE 17:44:53 36° ENE 17:49:31 10° N visible
11 Dec 5.3 19:19:57 10° SSW 19:23:57 23° W 19:27:59 10° NW visible
12 Dec 6.1 05:52:30 10° ENE 05:55:14 14° E 05:57:56 10° SE visible
12 Dec 3.7 18:42:04 10° S 18:47:00 54° W 18:51:59 10° NNW visible
13 Dec 3.7 06:52:49 10° NNE 06:57:51 61° E 07:02:52 10° S visible
13 Dec 2.9 18:05:15 10° SSE 18:10:15 65° ENE 18:15:18 10° N visible
13 Dec 6.1 19:47:31 10° WSW 19:49:41 13° W 19:51:51 10° WNW visible
14 Dec 5.4 06:16:42 10° NE 06:20:56 26° E 06:25:08 10° SSE visible
14 Dec 3.8 17:29:23 10° SE 17:33:41 29° ENE 17:38:00 10° N visible
14 Dec 4.9 19:08:12 10° SSW 19:12:36 30° W 19:17:02 10° NW visible
15 Dec 6.4 05:42:34 10° ENE 05:43:49 11° E 05:45:05 10° ESE visible
15 Dec 3.3 18:30:40 10° S 18:35:43 70° WSW 18:40:48 10° NNW visible
